#timestamp,LO_Frequency,Hit,StdDev 
1623726015.4,286047007.3,Y
1623726035.3,286047001.6,P
1623726055.1,286047004.2,N
1623726075.9,286047003.4,N
1623726095.7,286047005.4,Y
1623726115.5,286047003.6,P
1623726135.4,286047001.3,P
1623726155.2,286047005.8,P
1623726175.1,286047005.7,Y
1623726176.0,286047005.7,P
1623726195.8,286047002.6,N
1623726215.6,286047004.8,P
1623726235.5,286047004.7,Y
1623726255.3,286046999.7,P
1623726275.2,286047001.8,N
1623726295.9,286047003.5,N
1623726315.7,286047004.2,N
1623726335.6,286047004.4,N
1623726355.4,286047004.1,N
1623726375.2,286047004.9,Y
1623726395.1,286047001.1,P
1623726396.0,286047001.1,N
1623726415.8,286047001.1,N
1623726435.7,286046998.7,N
1623726455.5,286046998.3,N
1623726475.3,286047001.5,N
1623726495.2,286047003.0,N
1623726515.0,286047004.8,N
1623726515.9,286047004.8,N
1623726535.8,286047007.4,Y
1623726555.6,286047005.8,P
1623726575.4,286047009.2,P
1623726595.3,286047009.0,N
1623726615.1,286047008.7,N
1623726635.8,286047010.0,Y
1623726655.7,286047005.8,P
1623726675.5,286047007.6,P
1623726695.4,286047007.4,P
1623726715.2,286047009.0,Y
1623726735.0,286047002.2,P
1623726735.9,286047002.2,N
1623726755.8,286047001.5,N
1623726775.6,286047001.3,N
1623726795.5,286047003.4,N
1623726815.3,286047004.2,N
1623726835.1,286047000.0,N
1623726855.9,286046998.9,N
1623726875.7,286046996.5,N
1623726895.5,286046992.1,N
1623726915.4,286046990.7,N
1623726935.2,286046987.6,N
1623726955.1,286046987.3,N
1623726956.0,286046987.3,N
1623726975.8,286046988.4,N
1623726995.6,286046983.7,N
1623727015.5,286046983.7,N
1623727035.3,286046982.1,N
1623727055.2,286046982.2,N
1623727075.9,286046986.3,N
1623727095.8,286046987.0,N
1623727115.6,286046991.1,N
1623727135.4,286046991.3,N
1623727155.3,286046988.5,N
1623727175.1,286046991.2,N
1623727195.8,286046988.8,N
1623727215.7,286046991.3,N
1623727235.5,286046991.6,N
1623727255.4,286046991.1,N
1623727275.2,286046989.2,N
1623727295.0,286046987.4,N
1623727295.9,286046987.4,N
1623727315.8,286046989.9,N
1623727335.6,286046993.2,N
1623727355.4,286046990.3,N
1623727375.3,286046990.4,N
1623727395.1,286046992.9,N
1623727415.9,286046993.0,N
1623727435.7,286046994.4,N
1623727455.5,286046992.3,N
1623727475.4,286046990.8,N
1623727495.2,286046992.8,N
1623727515.1,286046988.7,Y
1623727516.0,286046988.7,P
1623727535.8,286047000.6,N
1623727555.6,286046999.2,N
1623727575.5,286046997.3,N
1623727595.3,286046999.6,N
1623727615.1,286046997.0,N
1623727635.9,286047000.4,N
1623727655.7,286047000.5,N
1623727675.6,286047002.4,N
1623727695.4,286047004.1,N
1623727715.2,286047001.3,N
1623727735.1,286047005.8,N
1623727736.0,286047005.8,N
1623727755.8,286047005.4,N
1623727775.7,286047003.1,N
1623727795.5,286047004.5,N
1623727815.3,286047006.3,N
1623727835.2,286047007.3,N
1623727855.0,286047006.9,N
1623727855.9,286047006.9,N
1623727875.7,286047004.6,N
1623727895.6,286047004.6,N
1623727915.4,286047005.4,N
1623727935.3,286047003.1,N
1623727955.1,286047003.6,N
1623727956.0,286047003.6,N
1623727975.8,286047006.0,N
1623727995.7,286047003.9,N
1623728015.5,286047005.1,N
1623728035.4,286047005.7,N
1623728055.2,286047005.0,N
1623728075.0,286047004.9,N
1623728075.9,286047004.9,N
1623728095.8,286047006.1,N
1623728115.6,286047008.4,Y
1623728135.5,286047005.5,P
1623728155.3,286047007.2,P
1623728175.1,286047006.2,P
1623728195.9,286047009.9,Y
1623728215.7,286047005.4,P
1623728235.5,286047005.4,P
1623728255.4,286047007.3,P
1623728275.2,286047006.1,Y
1623728295.1,286047004.1,P
1623728296.0,286047004.1,P
1623728315.8,286047001.5,N
1623728335.6,286047005.4,Y
1623728355.5,286047000.7,P
1623728375.3,286047000.0,N
1623728395.2,286047000.5,N
1623728415.9,286047001.7,N
1623728435.7,286047003.1,N
1623728455.6,286047003.4,N
1623728475.4,286047001.9,N
1623728495.2,286046998.8,N
1623728515.1,286046999.4,N
1623728516.0,286046999.4,N
1623728535.8,286046997.2,N
1623728555.7,286047000.7,N
1623728575.5,286046999.2,N
1623728595.3,286046998.1,N
1623728615.2,286047000.6,N
1623728635.0,286047000.9,N
1623728635.9,286047000.9,N
1623728655.8,286046999.0,N
1623728675.6,286046998.5,N
1623728695.4,286047001.1,N
1623728715.3,286046998.2,N
1623728735.1,286047000.6,N
1623728755.8,286046999.8,N
1623728775.7,286047001.5,N
1623728795.5,286047002.9,N
1623728815.4,286047003.1,N
1623728835.2,286047003.7,N
1623728855.0,286047004.2,N
1623728855.9,286047004.2,N
1623728875.8,286047003.0,N
1623728895.6,286047004.6,N
1623728915.4,286047004.8,N
1623728935.3,286047008.7,Y
1623728955.1,286047006.9,P
1623728975.9,286047007.1,N
1623728995.7,286047009.2,P
1623729015.5,286047008.5,N
1623729035.4,286047009.8,Y
1623729055.2,286047005.1,P
1623729075.1,286047004.8,P
1623729076.0,286047004.8,P
1623729095.8,286047003.8,Y
1623729115.6,286046999.3,P
1623729135.5,286046999.2,N
1623729155.3,286046998.5,N
1623729175.1,286046999.9,N
1623729195.9,286047001.3,N
1623729215.7,286047004.7,N
1623729235.6,286047011.9,Y
1623729255.4,286047014.4,P
1623729275.2,286047017.5,N
1623729295.1,286047019.7,N
1623729296.0,286047019.7,N
1623729315.8,286047019.4,N
1623729335.7,286047019.4,N
1623729355.5,286047021.0,Y
1623729375.3,286047006.9,P
1623729395.2,286047006.1,N
1623729415.0,286047007.0,N
1623729415.9,286047007.0,N
1623729435.8,286047008.8,N
1623729455.6,286047007.9,N
1623729475.5,286047007.3,N
1623729495.3,286047008.1,N
1623729515.1,286047010.8,Y
1623729535.9,286047000.0,P
1623729555.7,286046999.2,N
1623729575.6,286046998.6,N
1623729595.4,286046999.4,N
